Location: Fouquenies
(49.4624°N, 2.0492°E)
Time: 10:42:39
(UTC+00:00)

Genesis I - Pass Details

Date: 03 February 2023
Orbit: 466 x 516 km, 64.5° (Epoch: 23 March)

Event Time Altitude Azimuth Distance (km) Brightness Sun altitude
Rises 18:48:36 0° 210° (SSW) 2,641 7.3 -19.3°
Reaches altitude 10° 18:50:46 10° 207° (SSW) 1,760 6.3 -19.7°
Maximum altitude 18:54:41 64° 126° (SE) 587 3.1 -20.3°
Enters shadow 18:54:51 63° 110° (ESE) 591 3.1 -20.4°
